This is the latest recevied weather packets stored in our database for station/object SP3OTE-2. If no packets are shown the sender has not sent any weather packets the latest 10 day(s).
| Time | Temp. | Humidity | Pressure | Rain* | Wind** | Luminosity | Snow |
|---|---|---|---|---|---|---|---|
| 1777813539 | 30.56° C | 27% | 1015.1 hPa | - | - | - | - |
| 1777812938 | 30° C | 27% | 1015.2 hPa | - | - | - | - |
| 1777812338 | 29.44° C | 28% | 1015.4 hPa | - | - | - | - |
| 1777811738 | 28.89° C | 29% | 1015.4 hPa | - | - | - | - |
| 1777811137 | 28.33° C | 29% | 1015.6 hPa | - | - | - | - |
| 1777810537 | 27.22° C | 30% | 1015.7 hPa | - | - | - | - |
| 1777809937 | 27.22° C | 29% | 1015.8 hPa | - | - | - | - |
| 1777809336 | 26.11° C | 29% | 1016 hPa | - | - | - | - |
| 1777808736 | 26.11° C | 30% | 1016.1 hPa | - | - | - | - |
| 1777808136 | 26.11° C | 31% | 1016.2 hPa | - | - | - | - |
| 1777807536 | 25.56° C | 29% | 1016.3 hPa | - | - | - | - |
| 1777806936 | 25.56° C | 30% | 1016.4 hPa | - | - | - | - |
| 1777806335 | 25.56° C | 31% | 1016.6 hPa | - | - | - | - |
| 1777805735 | 25.56° C | 32% | 1016.6 hPa | - | - | - | - |
| 1777805137 | 25° C | 32% | 1016.6 hPa | - | - | - | - |
| 1777804535 | 25° C | 34% | 1016.8 hPa | - | - | - | - |
| 1777803934 | 24.44° C | 33% | 1016.9 hPa | - | - | - | - |
| 1777803334 | 23.89° C | 34% | 1017.1 hPa | - | - | - | - |
| 1777802734 | 23.89° C | 36% | 1017.2 hPa | - | - | - | - |
| 1777802134 | 23.33° C | 37% | 1017.3 hPa | - | - | - | - |
| 1777801533 | 23.33° C | 36% | 1017.4 hPa | - | - | - | - |
| 1777800933 | 22.78° C | 39% | 1017.3 hPa | - | - | - | - |
| 1777800333 | 22.78° C | 39% | 1017.4 hPa | - | - | - | - |
| 1777799732 | 22.22° C | 40% | 1017.6 hPa | - | - | - | - |
| 1777799132 | 21.67° C | 40% | 1017.7 hPa | - | - | - | - |
* Rain since midnight (hover to see other rain measurements)
** Current wind speed in m/s (hover to see current wind gust speed)